{"data":{"norad_id":54200,"intl_designator":"2022-141AV","name":"STARLINK-5250","alt_names":[],"object_type":"PAYLOAD","status":"ACTIVE","operator":null,"country":"US","launch_date":"2022-10-28","launch_site_code":"AFWTR","launch_vehicle":null,"mission":null,"orbit_class":"UNKNOWN","rcs_meters":null,"size_class":null,"mass_kg":null,"dimensions":null,"purposes":["comms"],"wikipedia_slug":null,"has_3d_model":false,"image_url":null,"decayed_at":null,"tle_current":{"epoch":"2026-05-24T22:45:27.720000Z","epoch_age_seconds":76210,"freshness":"FRESH","line1":"1 54200U 22141AV  26144.94823750  .00000857  00000+0  71902-4 0  9998","line2":"2 54200  53.2149  11.5467 0001237  97.7225 262.3907 15.08838741197513","mean_motion":15.08838741,"eccentricity":0.0001237,"inclination_deg":53.2149,"raan_deg":11.5467,"arg_perigee_deg":97.7225,"mean_anomaly_deg":262.3907,"bstar":7.1902e-5,"rev_number":19751,"period_min":95.43763431244,"perigee_km":538.89149494596,"apogee_km":540.60297950625,"semimajor_km":6917.8842372261,"source":"CELESTRAK","updated_at":"2026-05-25T13:38:17.685289Z"}}}